Location: Bonac
(42.8765°N, 0.9753°E)
Time: 11:12:40
(UTC+00:00)

Cosmos 1484 Rocket - Pass Details

Date: 12 January 2026
Orbit: 439 x 467 km, 97.6° (Epoch: 11 February)

Event Time Altitude Azimuth Distance (km) Brightness Sun altitude
Rises 17:25:55 0° 187° (S) 2,428 6.5 -7.8°
Reaches altitude 10° 17:28:05 10° 197° (SSW) 1,559 5.7 -8.2°
Maximum altitude 17:31:06 32° 262° (W) 792 4.5 -8.7°
Drops below altitude 10° 17:34:08 10° 327° (NNW) 1,563 5.3 -9.2°
Sets 17:36:18 0° 338° (NNW) 2,436 6.1 -9.6°
